Theta_e
336 337 337 337 336 336 336 337 336 334 334 333 332 330 329 328 329 329 329 328 328 327 326 326 326 326 325 325 325 326 328 328 327 328 328 328 329 330 330 329 327 327 326 327 327 328 328 328 328 328 329 329 328 327 327 326 325 327 329 327 326 326 326 327 328 328 328 328 329 329 329 328 328 328 327 325 324 323 324 325 323 321 319 321 324
337 337 337 337 336 336 337 337 335 333 333 332 330 329 327 327 327 328 328 328 327 326 324 324 324 325 325 326 326 328 328 327 326 327 328 328 329 329 329 327 325 325 326 327 327 326 326 327 327 327 328 328 327 327 327 325 325 328 329 328 327 327 328 328 328 328 328 328 328 328 329 328 328 328 326 325 323 322 322 323 321 319 318 319 322
337 337 338 337 336 337 336 336 334 332 333 332 330 328 327 327 326 326 326 326 324 323 322 323 324 325 325 326 327 327 328 327 325 326 328 327 327 328 327 326 326 325 325 327 326 325 326 327 326 327 327 327 327 326 325 325 327 328 328 329 328 327 329 328 328 328 328 328 327 328 328 328 328 327 326 325 324 323 323 323 323 321 320 319 320
338 337 337 337 336 336 336 335 333 331 332 331 329 328 327 327 327 325 325 324 323 323 323 324 325 326 327 327 328 328 326 326 325 326 327 326 326 327 327 327 326 326 326 326 326 325 327 327 326 327 327 326 325 324 323 324 327 328 327 328 327 326 328 328 328 329 328 328 327 328 328 328 327 327 326 326 325 324 323 323 323 322 322 321 319
337 337 337 336 336 335 334 333 331 330 329 328 327 327 327 327 327 325 324 324 324 325 325 325 325 326 328 329 329 327 325 324 325 325 327 327 327 327 327 327 327 326 326 326 326 326 327 327 326 327 325 324 324 323 324 324 326 327 326 327 326 326 327 327 328 329 328 328 327 327 327 327 327 326 325 324 324 324 323 323 323 322 322 321 321
336 337 336 336 335 334 333 332 331 329 327 327 327 327 327 326 325 324 324 325 325 326 326 325 326 325 326 328 328 326 325 324 322 322 323 324 326 327 326 326 326 326 326 326 326 325 326 326 325 325 324 324 324 324 325 325 325 326 326 326 326 326 326 326 327 328 328 327 327 326 326 326 326 325 324 322 323 323 323 323 323 322 322 321 321
336 336 336 336 335 333 332 331 330 329 328 328 327 327 327 326 324 324 324 325 326 326 325 326 326 325 325 327 327 324 323 323 322 322 321 319 320 322 323 323 323 322 323 325 327 326 326 326 326 325 325 325 325 325 325 325 324 325 325 326 326 326 327 327 327 327 327 327 327 327 325 325 325 324 323 322 322 322 322 323 323 322 322 321 321
336 336 336 335 334 332 331 330 330 328 328 328 327 327 326 325 324 323 324 327 327 326 326 326 325 326 327 326 325 323 319 321 323 322 320 317 315 318 319 319 319 318 317 319 323 326 326 325 324 324 324 325 325 324 324 325 325 325 326 326 327 327 327 328 328 327 327 327 327 327 325 324 324 324 323 322 322 321 322 323 322 321 321 321 320
335 335 335 335 334 332 330 330 329 328 328 327 326 327 326 325 324 323 326 328 326 325 326 325 325 325 326 323 322 320 316 319 322 322 321 317 315 318 320 318 317 317 316 315 316 320 324 324 323 322 323 324 325 325 324 324 324 324 326 326 326 326 327 328 328 327 326 326 325 326 325 324 324 323 323 322 321 322 322 321 320 320 320 321 321
335 335 335 334 334 333 331 330 330 328 327 325 325 326 326 325 323 322 326 327 326 326 325 323 323 322 320 317 316 316 315 319 323 323 321 316 315 321 322 321 319 318 319 318 316 317 317 319 321 322 323 324 325 325 324 324 323 324 325 326 326 326 326 327 327 326 326 325 325 325 324 323 324 323 322 322 321 321 321 320 320 318 318 320 321
336 335 334 334 334 333 331 330 330 328 326 324 324 324 325 324 322 321 325 326 325 324 322 321 322 319 316 316 316 314 314 316 319 320 317 312 314 319 322 323 321 320 322 322 321 320 317 316 318 320 322 323 323 323 323 324 324 325 326 326 326 325 326 326 326 326 326 325 325 325 324 322 324 323 322 322 321 321 321 318 317 316 315 318 320
336 335 334 334 334 333 331 330 330 329 327 325 323 323 323 323 322 321 323 324 322 321 322 324 324 320 318 319 317 314 312 312 312 312 310 310 313 315 318 321 320 321 324 324 324 322 319 319 320 321 322 322 322 322 322 323 324 324 325 325 326 325 324 324 325 325 325 325 325 325 324 322 324 324 322 322 321 321 320 316 314 315 315 316 317
335 335 335 334 333 333 332 331 330 329 328 326 324 323 323 322 322 321 323 322 319 321 324 325 325 323 321 321 317 313 311 309 307 308 308 310 312 314 315 317 317 320 323 324 324 321 317 320 322 323 324 323 323 323 322 321 322 323 324 324 324 324 322 322 323 324 325 325 324 324 323 323 324 324 323 322 320 318 316 313 313 315 315 316 316
336 336 335 333 333 333 333 332 331 330 328 326 324 324 323 322 321 322 323 322 319 319 323 323 324 324 323 321 317 312 310 309 308 309 310 311 312 314 315 317 318 319 320 319 320 320 317 319 321 321 323 324 324 323 321 321 322 323 324 324 322 322 321 321 323 324 324 324 324 323 323 324 324 324 323 321 319 314 311 311 314 316 316 315 316
336 336 335 334 333 333 332 332 331 330 329 327 325 324 322 322 323 323 323 323 320 320 323 323 324 325 322 319 315 312 311 311 312 313 313 313 314 316 319 320 319 320 320 317 317 320 320 320 320 319 320 322 322 320 319 321 322 322 322 321 319 319 320 322 323 324 324 324 324 322 322 322 322 323 322 322 320 314 311 310 312 315 317 316 316
335 335 335 334 333 332 331 331 331 330 330 328 327 325 324 322 323 324 323 323 323 323 325 325 325 324 320 316 313 313 313 313 315 316 314 314 316 318 320 321 320 320 321 319 317 319 320 319 318 318 320 320 320 320 320 322 321 319 319 319 319 320 321 323 323 322 322 322 321 318 316 317 318 321 322 322 321 316 312 311 311 312 314 315 315
334 334 334 334 333 332 331 331 330 330 330 330 329 326 325 323 323 324 322 323 325 327 327 326 325 322 317 315 315 315 314 315 316 315 314 314 318 320 320 321 321 321 321 320 318 317 319 318 316 318 320 320 320 321 322 322 321 320 320 320 321 322 323 323 322 321 321 321 319 316 314 315 317 319 321 321 321 317 312 311 311 311 310 311 312
333 333 334 333 333 333 332 331 330 330 331 330 329 327 325 323 322 322 322 325 327 326 326 326 325 322 318 317 317 315 315 316 316 314 314 315 318 321 322 321 321 321 321 319 316 316 317 317 317 319 320 320 320 321 321 321 321 321 322 322 322 323 322 321 319 318 319 318 317 316 315 315 316 318 319 320 320 317 314 312 311 311 311 310 310
333 333 335 334 334 334 333 332 331 331 331 330 329 326 325 324 323 322 323 325 326 324 324 326 326 323 321 318 317 316 317 317 317 315 314 315 318 321 321 320 320 319 317 314 311 312 312 314 318 321 321 321 321 321 321 321 321 321 323 324 323 322 321 318 316 315 315 315 316 316 314 315 315 316 316 318 319 317 315 313 312 311 311 311 310
333 333 334 335 334 333 332 332 332 332 331 330 330 328 326 325 323 322 322 322 324 324 324 325 326 325 323 321 319 318 318 319 318 315 314 316 317 319 320 319 317 313 311 309 308 309 310 312 318 321 320 321 322 321 321 320 318 319 321 323 323 322 320 317 315 315 314 314 314 315 314 315 315 315 315 315 317 316 315 315 314 311 311 310 309
333 333 333 334 333 333 332 332 333 333 331 331 331 330 328 326 323 323 322 321 322 323 324 325 326 325 324 322 321 320 320 321 319 315 315 316 315 317 317 316 312 308 307 307 307 307 307 309 315 318 318 320 320 321 321 319 317 315 315 317 319 320 319 317 314 313 312 311 312 313 314 314 315 314 314 315 315 315 314 315 315 313 312 310 309
331 331 331 331 331 331 332 332 333 333 332 332 332 331 330 327 325 324 323 322 321 321 324 326 326 326 325 323 322 322 321 321 319 316 314 313 313 313 313 312 309 307 307 306 306 306 305 307 313 315 315 316 317 317 318 317 315 311 309 309 311 313 313 312 310 310 309 308 309 311 313 314 315 314 314 314 314 314 314 314 315 314 312 310 311
328 326 326 326 327 327 328 329 330 331 331 331 330 331 330 329 328 327 324 323 322 322 324 325 325 326 326 324 323 322 322 321 319 315 311 310 312 313 311 309 307 307 308 308 307 307 306 306 309 311 311 312 312 312 312 312 310 307 305 306 307 308 309 309 310 310 309 308 307 309 311 313 314 314 314 314 314 314 314 314 315 315 313 312 313
326 325 325 325 327 327 327 329 330 329 329 329 330 330 330 329 329 329 326 323 322 323 325 325 325 325 326 325 324 323 322 322 319 314 309 310 315 315 310 307 306 307 309 310 309 309 309 309 308 307 308 308 308 308 307 307 306 306 306 307 308 309 310 310 311 310 310 310 309 308 309 311 312 312 313 313 314 314 314 314 314 315 315 314 315
325 325 325 325 326 327 327 328 329 328 328 328 329 328 328 328 328 328 327 325 325 325 325 326 325 326 326 325 324 322 322 321 318 311 308 311 318 317 309 306 306 307 310 312 311 311 312 312 310 307 306 307 307 306 307 308 308 309 309 310 311 312 311 311 311 311 311 312 311 310 310 310 311 312 313 313 314 314 315 315 315 315 315 314 315
324 324 323 323 325 326 327 327 326 327 326 326 326 326 327 328 327 326 326 326 326 325 324 324 323 323 324 325 324 322 322 321 315 309 308 313 318 316 308 305 306 309 312 313 312 312 312 313 312 310 308 308 307 307 309 311 311 311 311 312 313 313 312 311 311 311 311 311 311 311 311 311 312 312 313 313 314 315 315 315 315 315 315 314 314
322 323 322 323 323 324 325 325 325 326 326 326 326 325 326 326 326 326 325 324 324 324 323 324 323 321 323 324 324 322 321 319 314 309 310 316 318 313 305 305 308 311 314 314 313 313 314 314 314 313 312 311 309 308 310 311 312 312 313 312 313 313 312 312 311 310 311 310 310 310 311 311 311 311 313 313 314 314 315 315 315 315 314 314 314
317 318 319 321 322 322 323 323 324 325 325 325 325 325 325 325 325 326 325 323 324 324 322 322 322 322 324 324 323 321 321 320 318 316 317 321 319 311 305 308 312 313 315 315 314 314 314 315 315 314 314 314 313 311 310 310 311 312 313 313 313 312 312 311 310 310 310 310 311 311 310 310 310 310 312 313 314 314 314 314 314 315 314 314 314
310 311 313 314 317 319 321 322 323 324 324 325 325 325 325 324 325 325 324 324 325 324 322 321 322 323 325 323 322 322 321 321 322 321 321 322 321 316 312 313 315 315 316 316 315 315 314 314 315 315 315 315 315 313 311 310 310 310 311 313 313 312 312 311 310 310 310 311 311 311 311 311 311 312 312 312 312 312 313 314 314 315 315 314 314
306 307 308 309 310 313 316 318 320 321 322 324 324 324 324 323 324 324 324 324 325 324 323 323 323 324 323 322 321 322 321 322 323 323 322 322 322 320 319 317 317 317 317 317 317 316 315 314 314 315 315 315 314 313 313 312 310 309 309 310 311 311 311 311 311 310 310 311 310 310 311 312 313 314 314 314 314 313 314 315 315 315 315 315 315
305 305 306 307 308 309 311 314 315 317 319 321 323 323 322 322 322 323 324 324 323 324 323 323 323 323 323 322 322 323 322 322 323 323 323 322 322 322 322 321 319 319 319 319 318 317 317 316 315 315 315 314 314 314 313 313 313 312 311 310 310 310 310 311 311 311 311 311 310 310 311 312 314 315 315 315 315 315 316 316 315 315 315 315 315
305 305 305 306 306 307 308 309 310 313 316 318 321 320 318 318 321 322 321 321 321 322 322 322 322 324 323 323 323 323 323 322 322 322 323 323 322 322 322 322 321 320 320 320 318 317 317 317 316 316 315 315 314 315 314 314 314 314 313 313 312 312 311 311 311 311 311 311 311 312 313 314 315 315 316 316 316 316 316 316 317 316 316 316 316
305 305 304 304 304 305 306 306 307 309 311 315 317 316 312 313 316 317 317 317 318 319 320 320 321 322 321 320 321 322 322 323 322 322 322 323 323 322 322 322 321 320 320 320 319 318 318 318 318 318 317 316 316 316 316 316 315 314 314 314 314 314 314 313 312 312 312 312 313 314 314 315 316 316 317 317 316 316 316 316 316 316 316 316 316
307 306 305 304 304 304 304 305 305 306 307 310 312 311 309 310 311 312 313 314 315 316 316 317 318 318 317 317 318 320 321 321 321 322 322 322 322 322 322 322 321 321 321 321 320 320 320 320 319 319 319 319 318 318 318 317 317 316 315 314 315 315 315 315 315 315 314 314 314 315 316 317 317 318 317 317 317 317 317 317 316 316 315 315 315
308 308 307 307 306 305 305 305 305 305 306 307 308 309 309 310 310 311 311 311 312 313 313 313 314 314 313 314 315 316 317 318 319 320 321 320 319 319 320 320 320 320 320 320 320 320 320 320 320 320 320 319 319 319 318 319 318 318 317 316 315 315 315 315 316 316 316 316 316 316 317 317 318 318 318 318 318 317 317 317 317 316 315 315 315
307 307 307 308 308 307 307 306 306 306 305 306 307 308 309 310 310 311 311 311 311 311 311 312 312 312 313 313 313 314 314 315 316 317 317 317 317 318 319 319 319 319 319 319 319 319 319 320 320 320 320 320 320 319 319 319 319 319 319 318 317 316 316 316 316 317 317 317 317 318 318 317 317 318 318 318 317 316 316 317 316 316 315 315 315
303 304 305 305 306 306 306 306 306 307 306 306 306 307 309 309 310 310 310 311 311 311 310 310 310 310 311 311 312 313 312 312 313 314 314 315 315 316 316 317 317 318 318 317 317 317 317 318 318 318 319 319 319 319 319 319 319 319 320 320 319 318 317 316 317 318 318 318 318 318 319 318 318 318 317 317 316 316 315 316 315 314 313 313 313
303 303 304 304 305 305 306 306 306 307 307 307 307 307 307 308 308 308 308 308 308 308 308 308 308 308 308 308 309 309 309 309 309 310 311 311 312 312 313 313 314 315 315 315 315 315 316 316 316 315 316 316 316 317 317 318 318 319 319 320 320 320 319 318 318 318 319 318 318 318 319 318 318 318 317 316 316 315 315 314 313 312 312 311 311
302 302 302 302 302 303 305 306 307 307 307 308 309 308 307 307 307 307 306 305 304 304 304 305 306 306 306 306 306 306 306 306 306 306 306 306 307 308 308 309 309 310 311 312 312 313 313 314 314 314 314 314 314 315 316 317 317 318 318 319 319 319 319 319 319 319 319 318 318 318 318 318 317 317 317 317 317 316 314 313 312 312 313 312 311
302 301 301 301 301 301 302 303 304 305 305 305 306 306 307 307 307 306 305 304 303 302 301 301 300 301 301 302 303 303 303 304 304 304 304 303 303 304 304 304 305 306 306 308 309 309 310 310 311 312 312 313 313 313 314 315 315 316 317 317 317 317 317 317 317 317 317 317 317 317 317 317 317 317 317 317 317 316 314 313 313 313 313 312 311
301 300 300 301 300 300 300 300 299 300 300 301 301 302 303 303 302 301 302 302 302 302 302 301 301 300 299 299 300 300 301 301 302 302 302 302 302 302 302 302 303 303 304 304 304 305 306 306 307 308 309 310 311 311 311 312 312 312 313 314 314 315 315 315 315 315 314 315 315 316 317 317 317 316 317 317 316 316 315 314 313 313 312 312 312
300 300 300 300 300 299 298 298 298 298 298 299 299 299 299 298 298 298 299 299 299 299 300 300 300 300 299 299 299 299 299 299 299 299 300 300 300 300 301 301 301 301 301 301 301 301 301 302 303 303 304 305 306 307 308 309 310 310 311 311 311 311 311 312 312 311 312 313 314 315 316 317 316 316 317 316 316 316 316 315 314 313 312 312 311
300 300 300 301 300 299 298 298 298 297 296 297 297 298 298 298 298 299 299 299 299 299 298 299 299 299 298 298 298 298 298 298 298 298 298 298 299 299 299 299 299 299 299 299 299 299 299 299 300 300 301 301 302 303 304 305 307 308 309 309 310 310 311 311 310 310 310 312 313 314 315 315 316 316 316 316 316 315 315 315 315 314 312 312 309
300 300 300 300 300 299 299 300 298 297 297 297 298 299 299 299 299 299 299 299 299 299 299 299 299 299 299 299 298 298 298 298 298 298 298 298 298 298 298 298 298 299 298 298 298 298 298 298 298 299 299 299 300 301 302 304 306 307 308 308 309 310 311 312 311 311 311 312 313 313 314 315 316 316 316 315 314 314 314 315 314 312 311 311 309
300 299 299 299 300 299 301 301 299 298 299 299 300 300 300 300 300 300 300 300 300 300 300 299 299 299 299 299 299 298 298 298 298 298 298 298 298 298 298 298 298 299 299 299 299 299 299 299 299 299 299 299 299 300 301 302 304 306 307 308 309 310 311 312 313 312 312 312 312 313 314 315 315 315 314 313 313 313 314 313 312 311 311 311 310
300 299 299 299 300 301 301 300 299 300 300 300 300 300 300 300 300 299 300 300 300 300 300 299 299 299 299 298 298 297 297 297 298 298 299 298 298 298 298 298 298 298 298 299 299 299 299 299 299 299 299 299 299 300 301 301 302 303 304 305 307 309 310 312 313 314 313 313 314 315 315 315 315 314 313 312 313 312 312 311 310 310 311 311 309
299 299 298 299 300 300 300 300 300 300 300 300 300 300 299 299 299 299 299 299 299 299 299 298 298 298 297 297 297 297 297 297 298 298 299 299 298 298 298 298 298 298 298 298 298 298 298 298 298 298 298 299 299 299 300 301 301 302 302 304 306 307 309 312 314 314 314 314 313 314 315 315 313 313 312 311 310 309 308 309 310 311 311 310 308
299 299 298 298 300 300 299 299 300 300 300 299 299 299 299 299 299 299 299 299 298 297 297 297 297 297 297 297 297 297 297 297 298 298 298 298 298 298 298 298 298 298 298 298 298 298 298 298 298 298 298 298 298 299 300 301 302 303 303 303 304 306 309 312 313 313 313 313 313 313 314 314 312 312 312 310 307 306 307 309 311 310 309 308 306
299 299 298 298 299 299 299 300 300 299 299 299 299 299 299 299 299 299 298 298 297 297 296 296 297 297 297 297 298 298 298 298 298 298 298 298 297 297 297 297 297 297 296 296 297 297 297 297 298 297 297 297 297 297 298 300 301 302 302 303 304 305 308 311 312 313 313 312 313 313 313 312 311 311 311 309 306 306 308 309 308 307 306 305 303
298 298 298 298 299 299 299 299 299 299 299 299 299 299 299 298 298 298 298 298 297 296 296 296 297 297 297 297 297 297 297 297 297 297 297 297 297 296 296 296 296 296 296 295 296 296 296 296 297 297 297 297 297 297 297 298 299 300 301 302 302 303 305 307 309 311 311 310 312 313 312 311 311 311 311 309 306 305 306 305 303 303 303 301 300
297 297 298 298 299 298 298 299 299 299 299 298 298 298 298 298 298 298 298 297 297 296 297 297 296 296 296 296 295 296 296 295 295 295 295 295 295 296 296 295 295 295 295 295 295 296 296 296 296 297 297 296 296 297 297 298 299 299 300 301 301 301 303 304 306 308 307 307 308 310 311 311 310 310 310 309 305 303 302 301 301 300 300 300 300
Wind_Speed
29 29 27 24 22 20 20 19 19 20 22 24 27 26 25 25 26 27 26 25 26 25 23 23 23 21 19 19 18 17 16 14 12 11 10 9 9 7 7 7 6 7 7 8 8 7 6 7 9 8 6 6 8 9 9 10 9 8 9 10 9 11 12 11 12 12 13 14 14 13 11 9 8 6 7 10 9 8 7 6 4 3 3 4 3
30 29 27 25 23 22 21 21 21 23 25 27 28 27 25 25 26 27 27 25 23 22 22 22 21 20 20 20 19 18 15 12 11 10 9 9 8 7 7 7 6 6 7 7 8 7 7 8 9 8 7 7 10 11 11 11 11 9 10 11 10 11 12 12 13 12 12 12 13 12 11 10 9 9 9 10 11 10 9 7 5 4 4 5 5
32 30 29 27 25 24 22 22 23 25 27 28 28 26 25 26 25 26 26 24 22 21 22 22 21 21 21 21 19 17 13 10 9 9 9 9 8 8 7 7 7 7 7 8 8 8 8 8 8 7 7 9 11 12 12 13 12 10 11 11 11 11 11 11 11 11 11 12 12 12 12 11 11 11 9 9 9 10 8 7 7 7 6 5 5
34 33 32 29 28 26 23 25 26 28 29 30 29 27 26 27 26 25 25 24 23 23 24 24 24 23 21 20 18 16 13 11 10 10 9 9 9 9 8 8 8 8 7 8 8 8 9 9 7 7 9 10 11 11 11 13 13 12 12 11 10 11 11 10 10 11 11 12 13 12 12 12 11 10 10 9 8 8 7 6 7 8 8 7 6
38 36 34 32 30 27 26 28 29 29 30 30 28 26 26 26 26 25 24 24 25 26 27 26 26 24 23 22 20 17 15 14 13 12 10 10 10 10 8 8 8 8 8 8 8 8 9 9 7 8 10 10 10 10 11 13 14 13 12 12 11 11 10 10 12 13 12 12 12 11 11 10 10 12 13 11 8 8 8 5 5 7 7 8 6
38 37 36 34 31 29 29 30 30 30 29 28 25 24 25 26 25 25 24 25 27 28 28 27 25 25 25 25 23 19 17 15 13 12 12 10 11 11 10 9 8 9 9 9 8 8 9 8 8 9 9 9 9 10 11 12 13 13 12 12 11 11 10 10 13 15 14 13 12 11 9 7 12 17 15 13 10 8 9 7 5 6 6 6 4
36 36 36 35 33 32 32 32 31 30 28 26 24 24 25 25 24 24 25 26 27 27 26 24 23 23 23 22 19 17 16 14 11 11 11 10 10 11 10 10 8 8 9 9 9 9 9 9 9 9 8 7 8 9 10 11 12 11 11 12 10 11 11 11 13 14 15 14 13 12 8 6 13 18 16 17 16 11 9 9 8 7 6 4 3
39 37 36 36 35 35 34 33 31 29 27 26 26 26 26 25 24 25 27 27 26 26 24 21 20 20 19 18 15 14 13 13 11 10 9 8 9 10 10 10 9 8 8 9 10 10 10 10 10 9 8 7 8 9 9 10 11 11 11 11 10 10 11 11 12 13 15 14 14 13 8 6 15 18 15 17 19 18 15 12 10 8 7 5 3
41 40 39 38 37 35 34 32 30 28 26 25 26 27 26 26 25 25 27 27 27 27 24 20 19 18 17 17 16 14 12 11 10 9 7 6 7 8 9 9 9 9 8 8 9 10 11 11 11 11 10 9 9 9 9 10 10 11 11 10 9 10 11 12 12 12 13 14 14 14 10 10 17 16 13 15 18 21 20 16 13 10 9 9 5
38 38 39 38 36 35 33 31 30 28 25 25 26 26 26 26 25 25 25 25 26 25 23 21 20 18 17 17 17 16 13 12 11 9 7 5 5 7 6 6 7 8 8 7 6 7 9 11 11 10 10 10 10 8 9 9 10 10 10 9 8 9 11 13 12 10 12 14 14 15 12 14 19 17 15 17 17 19 20 18 15 11 11 12 7
36 36 36 36 35 33 32 31 30 29 26 26 26 26 26 25 24 25 25 23 23 24 22 21 20 17 15 15 14 14 13 12 11 10 8 7 6 6 5 4 4 6 7 6 5 4 5 8 9 9 9 10 9 8 7 8 9 9 10 9 9 9 10 12 12 10 11 14 15 15 12 13 18 19 17 18 17 17 18 18 16 14 13 12 9
36 36 36 35 35 33 32 32 31 31 29 28 27 27 27 25 24 24 24 23 23 24 23 21 19 16 14 13 12 11 11 10 10 10 10 8 7 6 4 4 3 5 7 6 5 4 5 7 8 8 9 10 8 7 6 7 9 9 9 9 9 9 9 10 11 10 10 12 14 13 11 12 16 19 18 17 15 14 16 19 20 18 15 12 10
34 35 36 35 35 35 34 33 33 33 31 29 28 27 27 25 24 25 24 24 24 24 22 20 18 15 13 12 11 10 11 11 11 11 10 9 7 6 5 5 4 5 6 7 6 4 5 8 8 8 9 10 9 6 4 6 8 9 7 7 9 9 9 9 9 9 9 9 11 11 11 12 15 17 17 15 12 12 16 20 21 19 15 14 12
32 33 35 34 34 35 34 34 34 33 32 30 29 28 27 26 26 26 24 24 24 22 20 18 16 14 13 11 11 12 12 12 12 11 10 9 8 7 6 5 3 3 4 7 8 7 6 7 7 7 9 10 9 7 5 6 8 8 8 9 9 9 8 10 10 10 11 11 11 11 12 14 15 16 17 16 13 13 17 20 21 19 15 14 14
31 33 34 32 33 34 33 33 34 34 33 31 30 28 27 26 26 25 24 23 23 22 19 18 16 15 14 12 12 12 12 13 12 10 9 9 8 7 6 4 2 2 1 3 7 9 7 6 5 5 7 9 9 8 8 9 10 9 10 10 10 10 10 12 13 13 14 14 14 13 13 14 15 16 18 18 15 15 16 17 18 19 18 15 14
31 33 32 31 32 32 31 32 33 33 33 31 30 28 26 26 26 25 24 23 23 22 20 18 17 16 15 14 14 13 12 12 11 9 8 9 7 6 5 3 1 0 2 1 5 8 7 6 5 5 7 8 8 9 10 10 9 10 11 11 12 13 13 15 16 16 16 15 15 14 12 12 13 16 20 19 17 16 15 15 14 13 18 20 17
31 32 31 31 32 30 29 29 29 29 31 31 29 27 26 27 27 27 25 24 24 22 20 18 17 16 16 15 14 13 12 11 10 8 9 9 8 7 6 3 2 2 2 2 3 5 6 4 5 8 10 9 9 10 9 8 8 9 11 13 16 16 16 16 16 16 16 14 15 13 9 9 10 14 19 19 18 17 15 18 16 9 12 18 18
27 28 30 30 29 28 25 24 24 26 29 30 28 27 27 28 27 27 26 26 25 24 22 19 18 17 16 15 13 12 12 11 10 9 9 10 10 9 8 5 4 3 3 4 5 6 6 4 8 11 11 9 9 9 8 8 9 11 13 16 18 19 18 17 15 15 15 14 13 12 9 9 10 12 17 18 17 18 15 17 19 13 9 10 12
24 25 27 28 27 24 22 20 21 25 28 28 28 28 29 29 28 27 27 27 26 26 24 22 19 18 17 15 14 13 12 11 10 10 10 11 10 9 9 6 5 4 4 4 5 6 5 7 11 12 11 10 9 8 7 7 9 12 15 17 18 19 19 18 16 15 15 14 14 13 11 12 12 13 16 17 17 18 15 15 19 19 14 11 9
23 23 24 25 23 20 18 18 20 25 27 28 29 30 30 30 29 29 28 28 27 27 26 24 21 19 17 16 15 14 13 11 10 10 11 11 10 9 8 6 5 4 4 5 6 6 5 8 13 14 12 11 10 9 7 5 9 12 14 16 17 17 17 17 16 16 16 15 15 15 14 15 16 16 17 18 17 16 13 11 15 19 19 16 14
21 22 23 23 22 20 18 19 20 23 26 28 29 28 28 29 29 29 29 28 29 28 27 25 22 19 18 17 15 15 13 11 10 10 11 11 9 7 6 6 5 5 6 7 7 6 6 9 13 14 12 12 11 10 8 7 9 11 12 14 16 17 17 17 16 15 15 16 17 18 18 16 16 17 17 15 14 13 11 10 9 15 21 21 17
18 18 17 17 18 18 17 18 19 21 24 26 26 25 24 25 27 28 28 28 29 28 27 26 23 19 18 17 15 15 14 12 11 11 11 10 9 7 6 5 5 7 8 8 8 8 8 10 12 12 11 11 11 10 10 10 10 10 11 13 16 17 17 16 15 15 15 16 18 20 20 17 16 16 16 14 12 12 13 12 8 11 20 21 15
15 14 14 13 13 12 13 15 15 16 16 18 21 21 21 22 25 26 26 26 27 26 25 24 22 19 18 17 16 15 14 13 12 11 11 10 8 6 5 5 6 8 9 8 8 9 10 11 12 11 10 10 10 10 11 12 11 12 13 16 17 17 16 15 15 15 16 16 18 20 20 18 16 16 15 14 12 11 12 13 10 11 16 18 14
14 15 14 12 12 12 12 14 13 12 13 15 17 18 19 20 22 24 25 25 25 24 24 23 21 20 19 18 17 16 15 14 13 11 11 10 8 5 5 6 8 9 9 10 9 10 10 10 10 11 11 10 10 12 13 13 14 15 17 18 18 16 15 14 15 15 15 15 17 18 19 18 17 16 16 16 14 12 11 11 11 11 13 13 12
15 16 15 12 11 10 11 13 12 12 14 16 16 15 15 17 18 20 22 25 26 26 26 25 23 23 22 21 18 17 16 15 13 12 12 10 7 6 6 8 10 10 11 11 10 9 9 8 7 9 11 12 11 13 15 16 16 17 17 18 18 17 16 16 16 15 14 14 14 16 17 18 18 18 17 17 15 13 11 12 12 11 10 9 9
18 17 17 17 15 12 11 12 13 13 14 16 17 15 13 14 16 19 22 25 25 25 23 22 21 21 22 20 18 17 17 16 13 12 13 10 7 6 7 9 11 12 12 12 11 9 7 6 5 6 9 11 10 12 16 16 16 17 16 16 17 17 15 15 16 15 15 14 13 14 15 17 18 17 16 16 16 14 13 14 14 13 11 9 10
22 21 20 19 19 18 16 14 14 14 14 16 17 16 14 15 16 19 22 23 23 21 19 19 18 19 19 18 17 14 13 12 11 12 12 9 6 7 8 10 12 13 12 11 10 9 8 7 6 5 6 7 7 10 15 16 16 16 15 15 16 17 16 15 15 15 15 15 15 14 15 16 17 17 17 17 17 17 16 16 16 15 13 12 12
25 25 23 21 21 20 19 18 17 16 14 13 12 13 14 16 16 17 19 21 22 21 19 18 18 19 19 18 16 12 9 9 10 12 11 7 7 8 9 11 12 13 11 9 7 8 9 8 7 6 6 5 5 7 13 16 17 16 16 16 16 17 17 17 16 16 16 16 16 16 16 16 16 17 19 19 19 19 18 19 19 18 17 16 15
29 27 26 25 23 21 20 19 19 18 17 16 15 15 15 13 13 14 16 19 21 21 21 22 20 19 20 18 15 13 11 11 10 10 9 7 7 9 11 12 13 12 11 9 6 6 7 8 9 8 8 7 6 6 8 13 15 17 17 18 18 18 18 18 18 18 17 17 16 16 16 15 15 16 18 20 21 21 20 20 21 21 19 18 18
30 29 29 29 28 26 23 20 18 17 17 19 20 19 17 13 11 12 13 14 15 17 20 22 19 18 18 16 15 14 14 13 11 10 9 8 7 8 10 12 12 11 9 9 9 7 5 7 9 9 10 10 8 7 7 8 11 14 16 18 19 19 19 20 20 20 20 18 17 17 16 15 14 15 16 18 19 20 21 21 21 22 21 20 19
30 30 31 31 31 30 27 24 21 18 17 19 20 20 18 16 15 13 13 14 16 17 19 19 17 17 17 16 15 15 16 15 15 14 12 10 9 8 9 10 12 12 9 8 11 11 7 7 9 9 9 11 10 9 9 9 9 11 13 16 18 19 20 21 22 22 22 21 20 19 18 17 16 15 15 15 16 18 20 21 21 22 22 21 21
29 29 30 32 33 32 32 30 28 24 22 21 22 23 23 22 21 20 19 20 20 20 22 21 19 17 16 14 13 13 13 14 15 14 13 12 11 11 10 10 11 12 9 8 11 13 11 10 11 11 11 12 13 12 13 14 13 13 13 14 15 17 19 21 23 24 24 23 23 22 21 20 19 19 18 17 17 18 19 20 21 21 22 23 23
26 26 27 29 30 31 31 32 32 30 27 26 26 27 28 28 28 27 25 24 23 23 23 23 21 19 17 16 15 13 13 13 12 12 12 12 11 11 12 12 12 12 11 9 11 13 14 13 14 14 14 15 15 15 16 17 18 19 18 17 17 18 19 20 21 23 24 24 24 24 24 23 23 22 22 21 21 21 21 21 21 21 22 24 24
20 20 21 22 24 26 27 28 30 30 29 28 27 28 29 29 29 29 27 26 25 25 25 24 24 22 20 19 17 16 15 13 11 11 11 10 9 8 9 10 10 11 11 12 12 14 16 17 18 18 18 19 19 19 18 18 18 20 21 22 22 22 22 22 22 22 23 24 25 25 26 27 26 26 26 25 25 25 25 24 23 23 24 25 26
15 14 14 14 16 19 20 22 24 25 26 26 26 26 25 25 25 25 25 24 24 24 23 23 22 21 19 18 17 16 15 14 13 12 11 10 9 8 8 8 8 9 10 11 12 13 14 16 18 20 22 23 23 22 22 22 21 21 21 23 25 26 26 26 26 26 26 26 27 27 28 28 28 29 30 29 29 28 27 27 27 27 27 27 28
16 14 13 12 11 11 12 14 15 17 19 21 22 22 21 21 20 19 18 19 19 19 19 18 18 16 15 14 14 14 13 13 12 12 11 10 9 9 9 10 9 9 9 10 10 10 10 11 12 14 17 20 22 23 24 24 25 24 23 23 26 28 30 30 30 30 30 30 30 31 32 31 30 31 31 30 30 29 27 28 29 29 27 28 28
17 15 14 13 11 10 9 8 8 9 10 13 15 16 16 16 15 14 12 11 11 11 11 11 11 10 8 8 9 9 8 7 8 8 8 9 8 8 9 10 10 10 10 10 10 10 10 10 10 10 12 14 16 18 21 23 25 26 26 27 28 29 31 32 33 33 33 33 33 34 36 35 32 30 30 31 32 30 28 29 30 28 26 26 26
14 13 12 11 9 7 5 4 5 6 5 6 7 8 10 11 10 8 6 6 5 4 4 3 4 3 2 2 4 5 4 3 4 5 5 6 7 7 8 9 9 10 11 10 11 11 11 11 12 12 13 14 15 16 17 19 22 24 27 29 30 30 30 30 32 33 34 35 35 36 38 36 33 32 32 32 33 32 31 31 29 26 25 26 25
11 11 11 11 11 9 5 3 3 4 2 2 2 1 1 3 4 3 2 3 4 4 3 1 1 2 3 3 3 4 6 6 6 7 7 8 9 10 11 11 12 12 13 13 14 14 14 14 14 14 15 16 17 17 16 17 19 21 23 26 29 30 30 30 31 32 33 35 36 37 38 38 38 36 34 33 33 32 32 32 30 28 28 28 26
11 10 10 10 11 10 9 8 7 5 3 2 1 3 3 2 3 3 4 5 6 6 6 6 6 6 6 7 7 8 9 10 11 11 12 13 14 15 15 16 16 17 17 18 19 20 20 20 19 19 19 18 19 19 19 18 18 19 21 23 25 27 29 29 29 31 32 34 34 35 35 36 37 36 33 32 32 32 32 34 34 32 32 30 26
11 10 10 9 9 9 9 9 9 7 6 4 3 2 2 2 3 4 5 6 7 8 9 10 10 10 11 11 11 12 12 13 14 15 15 16 18 18 19 20 21 21 22 22 23 24 25 25 25 24 24 24 23 23 23 22 21 21 22 24 26 27 27 27 27 29 31 32 33 32 32 32 34 34 33 33 33 34 35 36 33 30 27 25 22
9 9 9 8 7 7 7 7 6 5 4 3 1 1 1 2 3 4 5 5 6 7 9 10 12 12 13 13 13 14 14 15 15 16 17 18 19 20 21 22 23 24 25 25 26 26 27 28 28 28 28 29 28 28 28 27 26 25 24 25 28 29 28 28 29 30 31 32 32 30 29 30 32 33 35 36 37 37 38 38 35 29 22 19 19
8 7 7 7 6 5 5 5 5 4 3 2 1 1 1 1 2 3 4 5 7 8 10 11 12 13 14 14 15 15 16 17 17 17 18 19 20 21 21 22 23 24 25 25 26 27 27 29 30 30 30 30 30 31 31 30 30 30 28 27 28 28 28 28 30 31 31 31 30 29 28 29 30 31 34 36 38 39 39 39 36 28 21 20 20
6 5 4 4 4 3 3 5 6 6 5 4 4 3 2 1 0 3 5 7 8 10 11 13 14 15 16 17 17 17 17 18 18 18 19 19 19 20 20 20 21 21 22 23 24 24 25 27 28 29 30 29 29 30 31 31 31 31 31 30 29 28 27 28 30 31 31 30 29 28 27 27 28 29 30 31 33 35 36 33 28 24 23 22 22
4 3 1 1 2 2 2 4 6 7 8 6 4 2 1 1 1 4 6 8 10 11 13 15 17 19 20 21 21 21 20 20 19 19 19 19 20 20 20 20 20 20 21 22 22 23 24 25 26 28 29 29 29 29 30 30 30 31 32 31 30 29 28 29 31 31 31 31 30 28 27 27 27 26 25 25 27 28 28 26 25 25 25 25 22
2 2 1 1 2 1 2 3 5 5 4 2 1 1 1 1 3 6 8 10 12 14 16 19 20 22 23 23 23 23 22 21 20 20 20 19 20 21 21 21 21 21 21 22 23 25 26 27 28 29 29 30 30 28 28 28 28 30 31 31 32 33 31 31 34 34 32 32 31 28 26 27 25 23 22 22 23 24 24 25 25 26 27 25 22
1 2 1 2 1 0 0 1 2 2 1 1 2 3 3 4 7 9 11 13 15 17 18 19 20 22 22 22 23 23 22 21 20 20 19 19 18 19 20 20 21 22 22 23 24 26 27 28 29 30 31 32 32 30 28 26 25 27 29 30 32 33 31 31 36 37 35 33 31 29 26 24 22 21 21 22 23 24 24 24 25 27 27 25 23
3 2 1 3 3 2 2 3 3 3 3 4 5 5 6 8 11 13 15 16 16 17 18 19 20 21 22 22 22 22 21 20 18 17 16 15 16 16 17 18 18 19 22 23 25 26 27 28 29 30 31 32 33 32 29 25 21 21 24 26 28 30 31 32 36 37 37 35 32 29 26 24 23 24 26 26 26 26 26 26 27 28 26 24 22
2 2 0 3 4 4 5 5 5 5 6 7 8 9 10 11 14 15 15 15 17 18 19 20 21 21 21 21 20 20 19 19 17 16 15 15 15 15 17 17 17 17 18 20 22 25 27 28 30 30 30 32 33 33 30 27 23 21 20 20 22 25 28 32 35 37 39 38 34 31 29 27 27 30 31 30 30 30 30 29 28 27 25 23 21
3 3 2 3 5 6 7 7 7 7 8 9 9 9 8 10 11 12 14 16 18 19 19 20 20 20 20 20 18 17 17 17 17 18 18 18 18 17 18 19 19 19 18 18 20 22 24 26 29 31 30 31 32 33 32 29 27 25 22 19 18 20 24 26 29 33 38 39 36 33 31 30 31 33 34 34 34 34 32 30 27 25 24 22 19
2 3 3 3 4 5 6 7 9 10 9 7 5 4 5 6 8 11 15 17 17 18 19 20 20 19 18 18 17 16 16 17 18 19 21 22 22 21 19 19 19 20 19 18 19 20 21 22 26 29 30 30 30 31 31 28 26 25 23 19 17 18 21 21 21 24 32 36 35 32 32 32 32 34 37 38 38 36 33 30 27 25 22 19 17
Wind_Direction
159 162 168 164 158 161 162 159 160 162 161 155 151 152 153 154 153 153 155 156 156 158 159 159 159 160 163 163 158 153 150 150 148 150 155 156 157 161 171 181 185 185 185 182 179 182 191 187 184 192 205 208 202 199 195 188 187 183 182 188 183 176 173 169 170 170 165 160 159 156 151 148 144 134 117 103 94 87 87 90 83 71 65 75 84
155 159 163 160 160 167 167 165 166 167 163 156 154 154 156 156 156 156 158 159 158 158 159 159 161 161 159 156 152 148 145 141 138 138 142 143 148 156 164 173 171 164 166 170 172 174 182 183 181 188 199 200 194 189 188 188 185 182 187 188 180 180 179 171 169 172 174 171 166 159 150 144 141 136 125 109 98 92 91 87 81 81 90 94 99
156 158 159 162 168 172 171 169 168 167 163 159 159 159 160 160 159 160 158 156 155 156 157 157 157 155 153 151 149 144 137 135 134 131 133 136 140 143 145 151 146 143 152 162 169 171 175 181 185 193 193 188 189 189 188 189 186 182 192 196 186 184 184 179 177 178 181 180 171 160 153 147 140 140 141 127 110 107 107 95 83 84 92 101 115
157 158 161 167 173 175 173 169 165 163 161 161 164 165 164 163 163 160 155 153 153 153 154 153 152 151 151 150 144 136 131 132 134 130 132 134 131 127 126 130 129 129 142 153 159 163 170 177 187 198 190 182 187 193 193 192 189 184 190 200 200 195 191 191 191 187 188 187 175 160 156 155 147 148 150 143 135 131 131 113 90 85 83 87 101
160 161 168 172 174 175 172 168 164 161 161 163 166 166 164 163 162 159 156 154 153 152 153 153 153 154 156 153 144 137 135 137 140 137 137 136 128 122 115 115 119 122 132 141 141 145 157 169 180 187 185 182 184 189 193 194 192 188 191 199 205 207 204 204 200 192 191 197 193 174 165 167 161 155 144 140 151 151 151 145 103 93 87 84 91
164 166 172 175 173 172 171 169 165 162 163 164 166 166 164 163 162 159 158 157 156 155 156 156 158 159 160 157 150 146 143 144 146 140 137 133 125 124 119 113 114 117 125 134 135 135 147 159 167 172 176 176 177 183 188 195 195 189 188 195 202 209 213 216 208 198 191 197 209 202 195 195 174 164 148 138 146 150 155 163 135 112 99 86 90
166 170 175 175 172 170 171 171 167 163 163 165 167 167 166 167 165 162 160 159 159 159 160 161 162 160 158 156 153 150 145 143 141 133 130 126 123 126 124 122 122 121 127 135 137 136 141 152 160 163 170 169 172 184 187 190 193 187 183 191 202 209 212 218 213 205 199 199 208 210 215 212 180 174 164 151 149 148 158 166 148 125 107 91 95
169 173 176 175 173 171 171 171 168 163 164 168 170 170 169 170 168 165 163 162 162 163 163 164 162 158 157 156 155 156 152 144 138 132 129 124 123 125 124 126 130 131 135 143 147 147 148 151 153 152 157 162 165 178 183 183 187 187 189 196 207 211 211 216 215 212 211 210 210 206 204 186 178 179 176 166 156 149 154 158 143 126 118 119 127
173 175 176 176 175 173 170 170 168 166 168 173 174 172 172 171 169 168 168 167 165 164 164 163 161 162 166 167 163 163 162 148 139 136 131 126 123 120 119 124 131 136 137 143 152 157 160 162 159 150 148 156 160 169 177 182 186 189 196 202 206 205 205 209 211 217 220 219 213 205 190 170 175 176 174 174 161 150 152 152 144 139 135 137 141
173 175 177 177 176 173 170 170 171 170 171 175 176 175 175 173 171 171 172 170 166 166 166 164 166 171 175 172 164 160 159 151 147 149 149 146 133 123 121 121 128 138 138 136 140 152 166 171 170 160 151 153 155 164 179 183 182 181 186 190 189 192 199 201 202 211 219 217 211 203 191 173 174 174 173 177 168 155 155 153 150 154 148 146 151
172 174 176 177 176 173 171 172 173 173 172 175 176 176 176 175 173 173 174 171 166 165 164 162 167 175 175 169 159 153 155 156 157 160 161 155 139 129 141 147 141 146 145 142 141 148 173 179 174 166 163 167 164 164 183 192 187 180 179 181 181 185 193 196 196 202 211 211 207 205 202 188 183 182 180 181 176 165 159 153 149 152 149 149 157
172 172 174 176 175 174 174 175 176 176 176 177 177 177 178 177 175 174 173 169 164 163 160 160 166 173 172 164 155 148 152 159 159 157 155 151 146 146 171 198 185 162 158 162 162 166 186 187 182 171 168 182 182 170 185 205 201 193 186 188 191 188 185 187 187 189 202 208 205 203 203 199 193 191 187 183 187 189 173 154 146 146 146 147 154
170 171 173 175 176 175 176 177 179 180 179 180 179 178 178 177 175 174 171 167 164 163 162 164 169 173 170 162 154 151 155 158 156 154 156 159 166 174 190 207 194 176 182 192 194 195 189 182 181 176 171 179 186 188 206 212 202 198 193 193 196 189 178 175 176 179 190 195 190 185 187 190 190 192 191 185 188 196 178 156 146 148 152 153 157
168 171 173 175 176 176 176 178 181 181 181 181 181 179 177 175 174 172 170 168 166 167 168 169 172 175 174 169 162 160 157 153 150 151 157 166 175 181 187 190 179 174 192 201 198 196 190 178 175 180 183 187 195 208 214 196 188 189 188 190 193 189 175 165 166 171 172 169 167 168 172 180 183 188 192 187 180 176 169 160 151 151 160 164 168
169 173 174 174 176 177 178 181 183 182 182 183 181 180 177 172 172 173 173 172 170 172 173 174 177 179 181 177 168 162 156 149 146 144 150 164 171 174 180 189 179 143 135 193 186 184 188 187 183 184 185 192 204 209 195 181 180 180 181 186 187 182 171 160 160 164 162 158 157 157 161 171 180 188 191 189 184 170 162 161 154 154 167 176 180
172 174 174 175 178 181 182 184 187 185 183 184 183 181 178 173 174 177 179 178 174 174 177 180 184 185 182 175 166 162 158 152 150 148 154 165 170 173 184 198 208 199 350 298 182 182 191 194 191 181 172 175 182 182 176 173 174 175 175 175 170 166 163 159 160 161 158 153 151 152 157 168 181 191 192 193 191 179 169 168 163 160 168 174 183
173 174 175 178 181 184 186 188 190 189 185 186 186 184 182 179 178 180 184 182 175 175 180 184 189 186 179 173 166 164 162 159 160 159 161 171 178 185 192 199 213 241 287 279 211 195 200 196 178 172 170 169 164 160 159 160 161 163 165 164 161 160 161 162 163 162 160 154 153 158 165 169 177 185 187 191 190 184 179 175 175 178 171 170 178
171 172 174 179 182 185 188 190 191 191 189 189 189 188 186 184 183 184 186 182 176 179 184 188 193 189 180 176 172 171 169 166 170 171 170 176 182 189 196 199 209 225 248 251 228 212 214 199 172 169 168 168 162 150 146 151 156 157 160 162 162 164 166 166 166 165 164 163 165 171 167 156 162 172 178 186 190 187 184 182 183 190 191 187 185
166 170 175 181 185 187 188 189 190 192 193 191 191 193 191 189 188 186 186 184 182 184 186 189 194 193 187 182 178 179 176 173 180 185 182 182 184 189 196 198 203 218 227 212 194 196 199 175 167 168 166 165 165 159 154 157 161 161 163 165 167 171 173 170 170 171 172 173 176 178 168 150 149 157 162 168 180 187 189 193 196 197 202 218 212
161 168 175 182 185 186 187 189 190 192 194 193 195 197 196 195 192 188 187 188 186 186 188 191 194 193 188 184 183 184 181 179 187 190 188 189 189 190 195 197 197 196 178 161 158 168 169 162 168 174 173 172 175 176 177 179 173 167 167 170 173 178 180 177 176 177 178 181 181 178 170 157 150 149 150 153 164 175 181 185 196 201 205 212 211
156 164 173 180 182 181 186 191 192 193 193 193 197 199 198 198 196 192 191 189 188 189 190 191 195 195 190 186 186 186 183 184 191 195 196 194 191 193 197 194 182 163 149 144 144 151 153 156 168 177 181 186 190 191 194 194 181 170 168 173 176 180 185 183 179 180 181 184 183 175 169 164 162 161 161 163 169 179 187 185 188 201 205 207 211
150 148 150 160 168 175 184 188 192 194 192 191 196 200 201 201 200 198 198 195 193 193 191 192 196 196 194 193 191 188 188 190 192 196 200 194 188 190 194 186 165 150 144 138 134 140 145 151 164 174 181 186 193 197 194 192 187 176 169 171 175 178 182 180 175 172 172 176 179 177 172 169 172 179 182 188 194 198 203 204 197 199 201 203 208
145 125 107 108 127 154 174 180 187 191 189 188 192 198 206 207 202 201 204 203 201 197 192 192 198 198 197 198 196 195 197 195 194 199 198 188 178 178 179 168 156 149 139 129 125 128 132 143 161 173 177 181 188 189 184 182 183 176 167 166 170 175 175 171 169 165 161 165 173 179 180 179 182 191 197 199 199 199 204 205 197 192 195 197 202
128 117 107 113 129 142 155 168 181 184 181 184 188 195 204 206 203 202 205 205 204 200 193 191 196 197 197 198 197 200 201 196 196 199 189 176 167 169 166 153 152 149 136 126 126 124 120 125 148 167 174 176 176 172 168 166 168 167 163 161 164 169 171 168 166 164 158 158 166 176 182 185 190 198 200 198 195 196 200 198 190 188 195 201 207
118 118 110 110 122 135 151 166 174 170 170 175 178 186 197 199 198 196 197 198 198 198 195 194 194 192 193 195 194 197 199 196 198 194 181 174 170 171 165 155 154 152 140 135 139 139 126 116 129 155 166 170 168 164 161 159 161 163 163 163 165 169 172 170 169 169 165 160 162 171 177 181 187 194 197 201 202 201 199 195 194 195 200 214 217
107 113 104 95 98 113 138 153 154 154 164 166 158 159 177 185 185 185 187 190 193 196 198 196 193 190 192 194 192 193 194 193 195 188 178 179 182 176 165 155 155 154 146 143 148 155 152 139 137 148 159 167 168 165 166 167 167 168 170 171 173 176 178 177 176 176 177 175 174 177 181 184 190 197 203 207 207 204 201 199 199 201 206 220 221
99 103 104 102 101 105 113 125 137 149 166 168 152 149 167 180 184 185 183 183 186 192 195 193 191 189 188 188 189 189 188 187 188 185 182 184 181 173 161 152 154 155 154 152 154 164 171 165 167 172 167 172 173 170 177 182 180 178 180 182 184 188 191 190 188 187 189 191 192 193 197 198 201 207 212 214 211 208 208 206 206 209 210 211 213
95 96 99 101 104 109 117 125 136 143 152 156 147 152 172 185 192 189 181 183 187 189 186 184 187 188 184 181 179 177 178 181 182 182 181 175 164 162 155 150 154 159 162 163 158 170 181 179 187 198 192 195 200 185 186 192 194 191 191 194 198 201 204 204 203 204 206 207 207 208 211 213 214 215 216 217 218 218 219 217 215 218 216 210 212
88 90 93 95 98 107 118 128 134 136 138 141 144 156 168 181 194 192 187 191 194 191 181 175 181 188 185 177 167 168 181 188 188 187 181 168 158 159 159 161 165 168 172 178 178 181 189 191 198 209 212 221 234 227 207 204 207 206 204 206 208 210 214 217 218 221 223 224 225 225 225 224 225 225 224 223 225 227 229 227 223 223 223 219 218
87 88 92 94 96 100 107 117 124 127 132 135 138 145 146 143 152 170 178 179 181 182 173 168 174 183 182 174 163 170 187 189 187 189 190 188 178 169 172 177 181 183 185 193 200 202 202 203 206 213 221 231 239 241 235 226 223 224 222 220 220 220 223 226 229 232 235 237 241 242 241 238 237 236 233 231 230 230 231 230 226 226 228 228 226
88 89 90 92 94 96 98 101 105 112 122 130 133 132 128 125 128 136 138 135 140 148 146 146 154 163 170 175 172 177 191 195 193 191 191 195 196 192 195 199 199 201 201 199 201 200 200 205 212 222 231 238 243 243 245 248 244 240 238 235 233 231 229 231 234 237 240 244 247 248 249 247 246 245 244 241 237 232 230 229 229 229 230 232 233
89 89 89 89 90 91 91 91 93 100 109 119 127 124 118 119 124 126 126 125 130 133 131 131 136 141 150 159 161 171 187 196 200 197 193 197 203 207 210 210 209 210 210 204 201 203 205 206 213 225 233 240 247 250 250 251 251 252 252 252 250 245 240 237 237 237 240 243 246 248 249 248 249 250 250 249 246 240 234 231 231 232 234 235 237
87 84 82 83 86 88 89 88 88 92 99 110 121 120 114 113 118 122 125 125 125 125 125 127 129 129 130 133 139 152 165 175 184 188 189 194 198 201 205 207 209 212 215 213 206 207 211 211 214 222 228 233 239 245 249 251 252 253 253 253 255 256 254 250 246 244 243 244 247 249 249 250 251 250 250 251 252 249 244 240 238 238 239 239 239
90 81 74 76 80 82 84 86 86 88 92 101 110 112 111 111 115 119 121 121 120 121 121 122 125 126 125 126 134 142 146 150 159 168 174 175 173 177 187 198 204 209 215 219 218 219 221 221 223 225 228 233 235 238 243 247 250 252 253 252 253 254 255 257 257 255 252 250 251 251 250 251 251 249 249 251 252 250 248 247 246 247 247 247 246
99 92 81 76 78 80 82 85 86 87 90 96 102 108 110 112 114 116 117 117 116 116 116 117 120 122 123 124 127 130 132 136 141 150 158 157 155 158 164 176 185 190 200 210 219 226 229 232 235 234 233 236 237 239 242 245 247 250 251 253 253 253 253 254 255 256 256 255 255 255 254 253 251 250 248 246 247 249 248 249 250 251 252 252 251
101 102 99 93 92 92 89 85 85 85 86 89 95 104 111 113 113 115 116 117 117 115 115 118 119 120 123 125 126 127 128 133 139 146 151 152 153 156 163 175 185 189 196 203 208 216 221 227 236 239 240 241 242 244 246 247 249 251 252 253 251 250 250 250 250 253 256 258 259 260 260 256 252 253 251 249 250 252 253 254 253 250 251 252 252
102 101 100 100 103 108 103 94 96 96 85 80 85 95 105 110 110 110 112 117 119 115 112 117 122 121 122 130 139 141 136 138 150 158 160 160 162 166 173 181 187 190 197 205 212 219 223 225 230 236 240 244 246 248 249 249 249 251 254 255 254 251 248 246 246 249 252 256 260 263 262 256 250 253 258 260 257 253 254 257 254 248 248 251 252
96 94 94 95 96 103 109 110 127 132 111 92 88 86 95 105 104 99 98 98 101 103 100 117 136 133 126 148 169 181 193 207 206 204 207 208 207 211 214 212 211 211 212 217 224 228 231 237 242 243 244 248 249 251 252 251 248 248 250 254 257 260 257 251 249 249 252 256 260 263 263 260 257 259 263 262 257 250 249 252 252 250 249 249 253
91 88 90 92 88 90 96 102 147 165 162 160 197 284 33 91 88 71 54 42 40 40 36 25 281 276 281 273 258 249 249 255 256 252 254 254 251 250 251 251 250 248 246 247 248 248 246 246 249 250 252 253 253 252 253 256 255 252 252 253 256 260 262 261 258 257 257 258 260 262 263 263 263 264 263 260 255 249 246 244 244 249 253 253 257
99 94 93 93 87 86 86 85 101 120 108 98 186 286 310 337 1 344 328 339 347 346 345 335 319 309 301 294 288 282 277 275 273 271 271 270 269 268 267 266 265 263 261 259 260 260 259 257 255 254 254 255 257 257 255 257 260 259 257 258 258 259 261 262 262 261 260 260 261 261 262 262 262 262 262 259 253 246 243 243 246 253 261 262 261
102 99 95 93 89 85 84 82 87 97 101 96 90 47 20 3 347 344 346 341 327 316 312 309 308 310 310 306 301 296 292 288 283 280 278 276 276 276 275 275 274 272 271 268 266 264 263 261 259 257 255 254 256 257 255 255 257 259 261 263 264 264 265 265 266 266 265 263 261 260 260 260 261 262 261 257 251 245 245 250 257 262 265 264 255
93 90 83 78 70 65 69 73 70 73 85 90 77 32 12 355 349 355 355 336 311 302 299 297 298 300 301 303 304 303 301 298 294 290 287 285 284 283 282 281 280 279 279 277 274 271 268 266 263 260 259 257 255 256 256 255 253 254 257 263 267 269 270 271 271 270 269 266 262 259 258 257 258 259 258 254 252 249 249 255 264 266 257 244 235
96 86 78 67 46 31 40 50 43 42 52 51 28 39 42 20 356 335 314 299 294 294 295 296 297 297 299 302 304 303 301 298 295 292 290 288 287 286 286 286 284 282 281 280 278 275 272 270 267 264 262 261 258 256 255 255 254 253 252 256 262 266 270 272 271 269 268 266 262 261 260 259 257 257 257 256 255 253 254 257 260 254 233 218 220
105 101 99 77 42 24 32 29 25 38 63 76 77 80 91 111 333 301 298 299 303 304 305 306 307 306 306 307 308 307 305 301 297 294 292 290 289 288 287 287 286 284 282 281 280 279 277 274 272 269 266 265 264 261 257 255 255 255 252 250 251 255 261 268 270 267 264 263 262 261 261 261 260 259 259 259 258 256 255 251 243 228 214 212 218
101 106 126 94 51 43 25 28 44 66 78 80 77 73 100 126 325 304 301 306 308 307 309 311 310 311 312 312 311 309 306 304 303 299 297 296 294 291 289 288 287 285 284 284 283 283 283 281 279 276 273 269 266 264 262 259 257 255 253 250 248 248 253 262 267 266 263 261 262 262 260 260 260 259 259 260 257 251 243 232 220 213 211 212 212
91 78 98 150 104 68 2 36 69 86 88 71 17 351 9 359 314 299 297 302 303 304 307 309 309 309 309 308 306 303 300 298 297 295 294 294 293 292 291 289 289 289 289 289 289 288 288 287 285 282 279 275 271 268 266 266 265 261 257 254 252 250 251 259 265 264 260 259 260 258 256 257 258 257 256 253 243 230 221 216 213 210 208 208 207
351 33 114 162 144 41 273 129 116 129 156 293 305 319 326 314 306 304 303 304 307 311 315 316 314 313 311 308 305 301 297 292 288 286 287 287 287 289 290 290 291 292 291 291 291 291 291 291 290 287 283 280 276 273 270 271 273 270 264 260 257 252 252 261 265 261 256 254 254 252 250 253 254 250 243 233 222 215 211 207 205 205 206 208 211
310 358 126 184 223 264 237 197 190 208 235 262 281 297 309 310 307 304 304 309 317 324 326 325 321 319 317 314 311 307 301 295 291 291 292 293 291 289 288 288 289 290 291 290 289 288 288 290 290 290 289 286 281 276 272 271 276 278 271 265 263 260 258 262 265 262 257 253 249 246 243 241 236 229 223 216 210 207 205 201 199 201 204 208 212
285 330 293 205 219 235 235 230 236 246 250 258 271 285 297 303 301 300 308 321 331 334 335 333 330 326 322 318 313 309 305 301 297 296 295 295 297 296 293 290 287 286 289 290 290 288 286 285 284 286 289 290 288 284 277 268 267 275 276 272 273 274 271 268 264 259 255 250 244 237 231 226 223 220 217 212 206 203 202 201 202 205 208 209 209
264 273 253 214 211 228 241 243 247 254 258 265 277 288 298 303 305 313 327 333 333 333 336 338 335 330 324 319 314 310 306 304 302 299 294 290 287 286 287 288 286 283 281 283 286 288 286 283 281 281 282 285 286 286 283 273 265 267 271 274 282 288 287 283 273 260 251 245 238 231 224 219 217 219 219 214 208 204 203 203 204 205 205 201 196
245 220 191 175 189 219 236 240 248 258 263 270 290 318 324 319 325 331 331 330 330 332 336 336 334 331 328 326 324 320 317 316 315 313 310 305 299 294 292 291 289 286 282 278 277 279 279 280 279 278 278 278 278 280 282 278 269 263 263 267 281 291 291 291 288 271 253 241 230 223 222 221 219 220 220 216 209 205 204 203 198 193 190 190 194